Probability
0 0 0 0 0 0 0 0 0 0 0 0 0 0 0 0 0 0 0 0 0 0 0 0 0 1 2 2 1 2 2 1 2 4 3 1 1 1 1 0 0 0 0 0
0 0 0 0 0 0 0 0 0 0 0 0 0 0 0 0 0 0 0 0 0 0 0 0 0 1 1 1 0 1 2 1 2 3 3 2 1 1 1 0 0 0 0 0
0 0 0 0 0 0 0 0 0 0 0 0 0 0 0 0 0 0 0 0 0 0 0 0 0 0 0 0 0 0 1 2 2 3 3 2 2 1 1 0 0 0 0 0
0 0 0 0 0 0 0 0 0 0 0 0 0 0 0 0 0 0 0 0 0 0 0 0 0 0 0 0 0 0 0 1 2 2 2 2 1 0 0 0 0 0 0 0
0 0 0 0 0 0 0 0 0 0 0 0 0 0 0 0 0 0 0 0 0 0 0 0 0 0 0 0 0 0 0 0 0 0 1 1 0 0 0 0 0 0 0 0
0 0 0 0 0 0 0 0 0 0 0 0 0 0 0 0 0 0 0 0 0 0 0 0 0 0 0 0 0 0 0 0 0 0 0 0 0 0 0 0 0 0 0 0
0 0 0 0 0 0 0 0 0 0 0 0 0 0 0 0 0 0 0 0 0 0 0 0 0 0 0 0 0 0 0 0 0 0 0 0 0 0 0 0 0 0 0 0
0 0 0 0 0 0 0 0 0 0 0 0 0 0 0 0 0 0 0 0 0 0 0 0 0 0 0 0 0 0 0 0 0 0 0 0 0 0 0 0 0 0 0 0
0 0 0 0 0 0 0 0 0 0 0 0 0 0 0 0 0 0 0 0 0 0 0 0 0 0 0 0 0 0 0 0 0 0 0 0 0 0 0 0 0 0 0 0
0 0 0 0 0 0 0 0 0 0 0 0 0 0 0 0 0 0 0 0 0 0 0 0 0 0 0 0 0 0 0 0 0 0 0 0 0 0 0 0 0 0 0 0
0 0 0 0 0 0 0 0 0 0 0 0 0 0 0 0 0 0 0 0 0 0 0 0 0 0 0 0 0 0 0 0 0 0 0 0 0 0 0 0 0 0 0 0
0 0 0 0 0 0 0 0 0 0 0 0 0 0 0 0 0 0 0 0 0 0 0 0 0 0 0 0 0 0 0 0 0 0 0 0 0 0 0 0 0 0 0 0
0 0 0 0 0 0 0 0 0 0 0 0 0 0 0 0 0 0 0 0 0 0 0 0 0 0 0 0 0 0 0 0 0 0 0 0 0 0 0 0 0 0 0 0
0 0 0 0 0 0 0 0 0 0 0 0 0 0 0 0 0 0 0 0 0 0 0 0 0 0 0 0 0 0 0 0 0 0 0 0 0 0 0 0 0 0 0 0
0 0 0 0 0 0 0 0 0 0 0 0 0 0 0 0 0 0 0 0 0 0 0 0 0 0 0 0 0 0 0 0 0 0 0 0 0 0 0 0 0 0 0 0
0 0 0 0 0 0 0 0 0 0 0 0 0 0 0 0 0 0 0 0 0 0 0 0 0 0 0 0 0 0 0 0 0 0 0 0 0 0 0 0 0 0 0 0
0 0 0 0 0 0 0 0 0 0 0 0 0 0 0 0 0 0 0 0 0 0 0 0 0 0 0 0 0 0 0 0 0 0 0 0 0 0 0 0 0 0 0 0
0 0 0 0 0 0 0 0 0 0 0 0 0 0 0 0 0 0 0 0 0 0 0 0 0 0 0 0 0 0 0 0 0 0 0 0 0 0 0 0 0 0 0 0
0 0 0 0 0 0 0 0 0 0 0 0 0 0 0 0 0 0 0 0 0 0 0 0 0 0 0 0 0 0 0 0 0 0 0 0 0 0 0 0 0 0 0 0
0 0 0 0 0 0 0 0 0 0 0 0 0 0 0 0 0 0 0 0 0 0 0 0 0 0 0 0 0 0 0 0 0 0 0 0 0 0 0 0 0 0 0 0
0 0 0 0 0 0 0 0 0 0 0 0 0 0 0 0 0 0 0 0 0 0 0 0 0 0 0 0 0 0 0 0 0 0 0 0 0 0 0 0 0 0 0 0
0 0 0 0 0 0 0 0 0 0 0 0 0 0 0 0 0 0 0 0 0 0 0 0 0 0 0 0 0 0 0 0 0 0 0 0 0 0 0 0 0 0 0 0
0 0 0 0 0 0 0 0 0 0 0 0 0 0 0 0 0 0 0 0 0 0 0 0 0 0 0 0 0 0 0 0 0 0 0 0 0 0 0 0 0 0 0 0
0 0 0 0 0 0 0 0 0 0 0 0 0 0 0 0 0 0 0 0 0 0 0 0 0 0 0 0 0 0 0 0 0 0 0 0 0 0 0 0 0 0 0 0
0 0 0 0 0 0 0 0 0 0 0 0 0 0 0 0 0 0 0 0 0 0 0 0 0 0 0 0 0 0 0 0 0 0 0 0 0 0 0 0 0 0 0 0
0 0 0 0 0 0 0 0 0 0 0 0 0 0 0 0 0 0 0 0 0 0 0 0 0 0 0 0 0 0 0 0 0 0 0 0 0 0 0 0 0 0 0 0
Wind_Speed
2 3 6 9 10 7 4 4 6 6 2 2 7 10 10 7 5 6 5 4 4 4 3 1 1 2 2 2 2 3 4 4 4 3 3 3 3 3 2 3 3 4 4 4
2 7 9 5 5 5 5 5 6 6 2 3 5 10 9 6 6 6 5 5 4 3 2 1 1 2 2 2 2 2 3 3 4 4 3 2 3 3 3 3 3 4 4 4
8 5 4 5 5 6 7 7 7 6 4 2 3 8 6 5 3 3 3 4 3 3 2 1 1 1 1 1 2 2 2 2 3 3 2 1 1 0 1 2 3 3 4 4
6 5 3 4 6 7 8 7 7 5 2 4 1 6 8 5 4 4 4 3 3 2 2 2 2 1 1 1 1 1 2 2 2 3 3 4 4 4 4 3 4 4 4 5
6 4 4 7 8 7 6 3 3 3 3 4 2 4 10 3 5 6 5 4 3 2 2 3 2 3 1 0 1 1 1 1 1 2 3 4 3 3 2 2 4 4 4 5
5 3 5 5 3 5 3 1 1 1 1 5 6 6 9 5 6 5 4 3 3 2 2 2 1 1 1 1 1 1 2 1 1 1 1 2 3 3 3 3 4 4 3 4
4 5 4 3 2 1 3 3 1 2 2 8 4 6 10 7 6 5 5 4 3 2 3 2 1 1 1 0 0 1 1 0 0 1 1 2 2 3 4 4 5 4 3 4
4 6 5 4 6 6 6 7 7 6 6 5 3 8 8 5 4 3 3 2 2 2 2 2 2 1 1 1 1 0 0 1 1 1 2 1 1 2 2 3 3 5 5 5
5 6 2 2 2 6 5 6 5 3 1 4 6 6 7 3 2 2 2 1 2 2 1 1 1 1 1 1 1 2 1 1 1 2 2 1 2 2 3 3 3 3 3 3
4 4 3 2 0 1 4 4 3 4 4 6 7 6 6 5 6 4 3 3 2 2 1 0 0 0 0 0 1 1 1 2 2 2 1 2 2 2 2 2 2 3 3 3
3 4 3 1 6 7 4 4 4 4 5 6 6 8 5 5 5 5 4 4 3 2 2 1 1 0 1 1 1 1 1 1 2 2 2 1 2 2 1 2 3 3 2 2
4 4 4 6 4 3 5 6 7 6 7 5 5 8 3 2 3 2 2 2 2 2 1 1 0 1 1 1 1 1 2 2 2 2 2 1 2 1 2 2 3 2 2 2
5 4 1 4 3 1 3 4 5 4 2 4 6 9 2 1 2 1 1 1 1 1 0 1 1 1 1 2 2 2 2 2 2 2 2 2 2 2 2 3 3 2 2 2
3 5 8 10 6 5 4 5 5 5 5 7 10 9 5 3 2 2 1 1 1 1 1 1 1 2 2 2 2 3 3 3 3 2 2 2 3 3 3 3 2 2 2 2
3 6 7 7 5 4 6 8 9 10 10 10 10 10 9 6 4 2 1 1 2 2 2 2 2 2 3 3 3 3 3 3 3 2 2 3 3 3 2 2 2 2 2 2
3 4 3 5 5 5 8 10 11 13 11 12 11 13 6 4 1 1 1 1 2 3 3 3 3 3 3 4 4 3 3 4 3 2 3 3 3 3 3 3 3 2 1 1
4 4 4 5 2 1 10 11 12 9 8 9 13 12 3 3 3 3 2 2 2 4 4 3 3 3 3 3 3 3 3 4 3 3 3 3 3 3 3 3 2 2 2 1
6 5 3 2 2 10 9 4 8 8 8 8 7 4 4 4 3 1 2 2 3 3 3 4 4 4 4 3 3 3 3 3 3 3 3 4 3 3 3 3 3 2 2 1
7 7 4 4 5 9 8 3 4 7 7 5 7 5 3 2 1 2 2 1 2 3 3 3 3 3 3 3 3 2 2 2 3 3 4 4 4 3 3 3 3 2 1 1
5 5 5 5 5 10 7 3 2 2 5 3 3 3 3 1 3 4 2 3 3 3 3 3 3 3 3 4 3 2 2 2 3 4 4 4 4 3 3 3 3 2 2 2
5 5 7 7 7 9 5 4 1 5 6 1 1 2 2 3 4 3 3 4 3 4 4 4 3 3 3 4 3 3 3 4 4 4 4 4 4 3 3 3 2 2 2 2
8 6 6 5 7 10 1 2 5 4 0 0 1 1 2 2 3 3 3 3 3 4 4 4 4 4 4 4 3 3 4 5 5 4 4 4 4 4 2 2 2 2 1 1
6 7 5 7 7 2 2 3 2 1 1 1 1 2 1 2 3 3 3 3 3 3 4 4 4 4 5 4 4 3 5 5 5 4 4 4 4 3 3 2 2 1 1 1
3 1 3 3 5 3 2 0 1 0 1 2 1 2 2 2 2 3 3 3 3 3 4 4 3 4 4 5 5 4 4 4 3 3 4 3 3 3 3 2 1 1 1 1
3 3 3 4 3 2 2 1 1 1 1 1 2 1 1 1 2 2 2 2 3 4 4 3 3 3 4 5 5 5 5 3 3 3 3 3 3 3 3 2 2 2 2 2
2 4 5 6 4 4 4 2 0 0 1 1 1 2 2 1 1 2 2 2 3 4 4 3 4 4 4 4 5 5 5 3 3 3 3 2 2 2 2 2 3 4 3 4
Wind_Direction
160 132 207 211 205 210 200 215 247 255 253 224 242 259 270 272 265 259 257 254 252 253 261 224 155 130 106 98 132 171 174 180 170 170 180 185 195 194 198 203 193 188 184 184
106 231 231 223 215 223 231 245 262 278 277 230 253 266 269 258 247 240 233 237 237 257 302 6 86 92 106 124 131 137 171 178 179 186 189 190 188 198 195 193 198 194 188 190
195 228 210 199 212 221 234 227 238 256 317 306 295 292 275 272 272 273 237 229 229 210 211 189 131 140 127 137 168 165 162 166 176 171 156 129 118 145 190 202 207 207 198 197
229 246 215 203 216 203 237 229 231 244 273 277 221 282 276 261 284 272 257 239 236 224 188 178 168 166 191 217 201 173 160 147 154 162 169 173 190 210 215 208 209 211 205 204
231 210 199 215 223 201 226 226 217 226 219 271 242 243 277 272 258 260 249 238 239 221 182 178 182 190 195 170 143 158 128 118 139 163 183 193 212 224 218 209 207 212 211 212
243 238 211 212 213 197 189 64 22 40 109 256 222 207 268 238 231 248 246 230 229 215 180 182 181 143 92 51 58 86 119 118 125 157 193 208 221 225 215 221 218 217 219 220
263 252 241 193 175 177 144 118 13 319 256 245 220 214 248 243 230 222 227 226 224 198 182 177 150 126 111 82 62 51 112 109 210 194 224 237 239 228 222 222 221 219 220 227
222 257 225 202 191 190 198 178 187 213 231 263 245 231 245 246 246 235 222 202 186 183 184 185 191 191 195 204 193 185 224 268 258 242 253 258 266 254 248 241 234 225 222 224
201 248 292 238 199 157 173 204 199 180 245 264 253 263 284 250 256 243 212 175 188 192 184 181 208 215 212 227 233 222 224 273 276 270 274 270 262 263 266 257 242 244 240 228
179 243 273 286 123 208 178 163 139 166 201 247 260 245 235 230 238 234 225 210 204 189 181 183 240 284 294 255 292 286 249 246 266 280 273 283 277 271 274 273 257 250 251 240
182 205 267 247 206 201 180 188 187 187 198 209 250 257 221 217 226 225 223 206 196 195 200 216 238 292 12 16 6 333 308 310 307 296 290 290 292 293 287 278 269 260 255 245
184 182 236 245 256 238 208 200 180 198 231 222 238 262 259 232 238 218 218 196 180 176 185 204 269 44 41 359 339 326 314 312 306 305 304 302 308 312 302 294 291 279 262 252
165 165 232 317 301 257 231 219 202 197 193 214 226 258 283 40 48 62 142 189 207 175 115 24 14 4 351 339 331 325 326 322 329 334 331 327 319 311 303 296 296 290 269 263
166 189 201 216 224 194 221 227 204 185 210 233 236 253 275 310 329 338 348 305 286 336 39 40 16 357 350 340 332 335 339 342 343 343 344 327 311 302 296 298 297 289 272 264
162 220 231 247 245 218 226 231 219 218 221 227 244 246 252 254 264 282 319 336 343 345 354 354 344 340 339 339 341 344 342 341 340 342 336 319 320 322 315 310 302 295 289 283
181 219 220 259 252 237 253 242 229 233 235 242 256 261 257 260 239 269 316 346 317 312 320 328 334 332 327 327 327 332 335 332 331 332 328 328 330 329 325 318 313 311 305 296
195 179 191 246 271 306 257 232 218 221 220 217 238 248 258 266 259 258 273 276 279 301 310 309 306 304 312 314 317 314 321 329 338 341 340 337 331 327 321 315 319 313 300 287
191 187 194 202 142 236 244 212 199 209 236 231 237 248 240 242 253 269 273 263 279 295 301 306 310 310 313 315 315 318 333 337 337 338 336 331 325 320 320 320 313 303 293 277
191 180 183 184 225 264 278 244 184 198 247 244 236 253 266 271 299 274 306 304 280 294 300 298 298 298 311 320 317 325 336 339 338 331 327 321 315 313 317 319 314 312 313 308
192 182 183 191 209 236 247 253 246 165 254 267 221 245 259 238 241 260 328 346 335 334 330 327 327 334 337 336 337 337 331 332 323 321 320 317 314 312 314 316 319 326 324 310
174 193 205 210 230 253 263 276 148 184 240 259 234 241 229 227 243 272 323 332 333 334 336 344 344 343 338 344 351 346 339 330 327 331 330 325 325 325 320 324 325 334 334 334
181 184 197 187 222 249 266 129 176 214 253 342 283 275 264 273 296 308 324 327 335 340 344 350 351 346 346 352 360 350 337 334 339 343 342 335 332 328 328 333 333 340 344 350
201 198 193 198 218 248 154 174 199 139 202 284 287 294 252 261 279 300 307 315 330 335 340 347 350 346 347 351 356 347 334 337 342 350 346 339 336 336 334 331 330 335 336 324
241 227 186 226 244 236 215 176 341 309 253 278 271 267 266 267 274 298 306 321 334 339 342 346 350 345 339 345 347 344 334 337 342 346 340 337 341 346 344 338 331 320 313 302
219 192 203 234 254 266 249 242 268 286 332 344 335 314 286 256 288 301 308 321 331 335 340 343 341 334 331 339 340 340 337 342 347 344 339 337 339 341 344 347 332 315 303 286
202 193 202 227 220 224 242 247 263 286 292 291 304 323 337 330 290 312 314 322 327 328 333 336 335 331 330 332 330 334 335 341 347 342 337 334 337 338 345 348 346 344 328 328